When you browse on this site, cookies collect data to enhance your experience and personalize the content and advertising you see.
Visit our Privacy Policy to learn more. By continuing to use the site, you agree to this use of cookies and data.
  • In Denmark
  • List of Countries
  • For 7 days
  • Water Temperature
  • Satellite Maps
  • Weather Map
  • Weather Widgets
  • user-avatar
    Login

    Hourly Weather Hrazdan

    Today, 16 July, Tuesday

    Time Temperature Precipitation Wind Pressure Humidity
    00:00 +15°C° 0 mm 2 mps 609 mmHg 74%
    01:00 +14°C° 0 mm 2 mps 609 mmHg 76%
    02:00 +14°C° 0 mm 2 mps 609 mmHg 78%
    03:00 +14°C° 0 mm 2 mps 609 mmHg 82%
    04:00 +14°C° 0 mm 1 mps 609 mmHg 81%
    05:00 +14°C° 0 mm 1 mps 609 mmHg 80%
    06:00 +15°C° 0 mm 1 mps 609 mmHg 79%
    07:00 +18°C° 0 mm 1 mps 610 mmHg 71%
    08:00 +20°C° 0 mm 1 mps 610 mmHg 63%
    09:00 +22°C° 0 mm 1 mps 611 mmHg 55%
    10:00 +23°C° 0 mm 1 mps 611 mmHg 50%
    11:00 +24°C° 0 mm 2 mps 612 mmHg 45%
    12:00 +25°C° 0 mm 2 mps 612 mmHg 40%
    13:00 +25°C° 0.1 mm 2 mps 612 mmHg 40%
    14:00 +25°C° 0.1 mm 2 mps 611 mmHg 41%
    15:00 +26°C° 0.1 mm 2 mps 611 mmHg 41%
    16:00 +24°C° 0.2 mm 2 mps 611 mmHg 50%
    17:00 +23°C° 0.2 mm 2 mps 611 mmHg 59%
    18:00 +21°C° 0.2 mm 2 mps 610 mmHg 68%
    19:00 +19°C° 0 mm 2 mps 610 mmHg 73%
    20:00 +17°C° 0 mm 2 mps 610 mmHg 79%
    21:00 +14°C° 0 mm 3 mps 609 mmHg 84%
    22:00 +15°C° 0 mm 2 mps 609 mmHg 83%
    23:00 +15°C° 0 mm 2 mps 609 mmHg 82%

    Tomorrow, 17 July, Wednesday

    Time Temperature Precipitation Wind Pressure Humidity
    00:00 +14°C° 0 mm 2 mps 609 mmHg 81%
    01:00 +14°C° 0 mm 2 mps 609 mmHg 80%
    02:00 +14°C° 0 mm 2 mps 609 mmHg 80%
    03:00 +14°C° 0 mm 2 mps 609 mmHg 80%
    04:00 +14°C° 0 mm 2 mps 609 mmHg 80%
    05:00 +15°C° 0 mm 2 mps 609 mmHg 79%
    06:00 +16°C° 0 mm 1 mps 610 mmHg 79%
    07:00 +18°C° 0 mm 2 mps 610 mmHg 74%
    08:00 +19°C° 0 mm 2 mps 611 mmHg 68%
    09:00 +21°C° 0 mm 2 mps 611 mmHg 63%
    10:00 +23°C° 0 mm 2 mps 612 mmHg 59%
    11:00 +24°C° 0 mm 2 mps 612 mmHg 56%
    12:00 +25°C° 0 mm 2 mps 612 mmHg 52%
    13:00 +26°C° 0.3 mm 3 mps 612 mmHg 52%
    14:00 +26°C° 0.3 mm 3 mps 611 mmHg 51%
    15:00 +26°C° 0.3 mm 3 mps 611 mmHg 50%
    16:00 +25°C° 0.3 mm 3 mps 611 mmHg 56%
    17:00 +24°C° 0.3 mm 2 mps 610 mmHg 61%
    18:00 +23°C° 0.3 mm 2 mps 610 mmHg 67%
    19:00 +20°C° 0.1 mm 2 mps 610 mmHg 72%
    20:00 +19°C° 0.1 mm 2 mps 610 mmHg 77%
    21:00 +17°C° 0.1 mm 2 mps 609 mmHg 82%
    22:00 +16°C° 0 mm 2 mps 609 mmHg 83%
    23:00 +16°C° 0 mm 2 mps 609 mmHg 83%

    Day after tomorrow, 18 July, Thursday

    Time Temperature Precipitation Wind Pressure Humidity
    00:00 +16°C° 0 mm 2 mps 609 mmHg 83%
    01:00 +16°C° 0 mm 2 mps 609 mmHg 84%
    02:00 +16°C° 0 mm 2 mps 609 mmHg 84%
    03:00 +15°C° 0 mm 2 mps 609 mmHg 85%
    04:00 +16°C° 0 mm 1 mps 609 mmHg 84%
    05:00 +16°C° 0 mm 1 mps 610 mmHg 84%
    06:00 +18°C° 0 mm 1 mps 610 mmHg 83%
    07:00 +20°C° 0 mm 1 mps 611 mmHg 77%
    08:00 +20°C° 0 mm 2 mps 611 mmHg 70%
    09:00 +23°C° 0 mm 2 mps 612 mmHg 64%
    10:00 +24°C° 0 mm 2 mps 612 mmHg 59%
    11:00 +25°C° 0 mm 2 mps 612 mmHg 53%
    12:00 +27°C° 0 mm 2 mps 612 mmHg 47%
    13:00 +27°C° 0.2 mm 2 mps 612 mmHg 47%
    14:00 +27°C° 0.2 mm 3 mps 612 mmHg 47%
    15:00 +27°C° 0.2 mm 3 mps 612 mmHg 47%
    16:00 +26°C° 0.2 mm 3 mps 611 mmHg 54%
    17:00 +25°C° 0.2 mm 2 mps 611 mmHg 61%
    18:00 +24°C° 0.2 mm 2 mps 611 mmHg 68%
    19:00 +21°C° 0.1 mm 2 mps 611 mmHg 73%
    20:00 +19°C° 0.1 mm 2 mps 611 mmHg 78%
    21:00 +17°C° 0.1 mm 2 mps 610 mmHg 83%
    22:00 +17°C° 0.1 mm 2 mps 611 mmHg 82%
    23:00 +17°C° 0.1 mm 2 mps 611 mmHg 82%

    19 July, Friday

    Time Temperature Precipitation Wind Pressure Humidity
    00:00 +16°C° 0.1 mm 2 mps 611 mmHg 81%
    01:00 +16°C° 0 mm 2 mps 611 mmHg 82%
    02:00 +16°C° 0 mm 2 mps 611 mmHg 83%
    03:00 +16°C° 0 mm 1 mps 611 mmHg 83%
    04:00 +16°C° 0 mm 1 mps 611 mmHg 83%
    05:00 +16°C° 0 mm 1 mps 611 mmHg 83%
    06:00 +18°C° 0 mm 1 mps 612 mmHg 83%
    07:00 +20°C° 0 mm 1 mps 612 mmHg 77%
    08:00 +20°C° 0 mm 2 mps 613 mmHg 72%
    09:00 +23°C° 0 mm 2 mps 614 mmHg 66%
    10:00 +24°C° 0 mm 2 mps 614 mmHg 62%
    11:00 +25°C° 0 mm 3 mps 614 mmHg 58%
    12:00 +26°C° 0 mm 3 mps 614 mmHg 53%
    13:00 +26°C° 0.2 mm 3 mps 614 mmHg 55%
    14:00 +26°C° 0.2 mm 3 mps 614 mmHg 56%
    15:00 +26°C° 0.2 mm 3 mps 614 mmHg 58%
    16:00 +25°C° 0.2 mm 3 mps 613 mmHg 63%
    17:00 +24°C° 0.2 mm 3 mps 613 mmHg 69%
    18:00 +22°C° 0.2 mm 3 mps 613 mmHg 75%
    19:00 +20°C° 0 mm 3 mps 613 mmHg 79%
    20:00 +19°C° 0 mm 3 mps 613 mmHg 83%
    21:00 +17°C° 0 mm 3 mps 613 mmHg 86%
    22:00 +17°C° 0 mm 3 mps 613 mmHg 87%
    23:00 +17°C° 0 mm 3 mps 613 mmHg 87%

    20 July, Saturday

    Time Temperature Precipitation Wind Pressure Humidity
    00:00 +17°C° 0 mm 3 mps 614 mmHg 88%
    01:00 +16°C° 0 mm 2 mps 614 mmHg 88%
    02:00 +16°C° 0 mm 2 mps 614 mmHg 89%
    03:00 +16°C° 0 mm 2 mps 614 mmHg 89%
    04:00 +16°C° 0 mm 2 mps 614 mmHg 89%
    05:00 +16°C° 0 mm 2 mps 614 mmHg 88%
    06:00 +17°C° 0 mm 2 mps 615 mmHg 88%
    07:00 +18°C° 0 mm 2 mps 615 mmHg 82%
    08:00 +20°C° 0 mm 2 mps 616 mmHg 77%
    09:00 +21°C° 0 mm 2 mps 616 mmHg 71%
    10:00 +22°C° 0 mm 3 mps 617 mmHg 68%
    11:00 +24°C° 0 mm 3 mps 617 mmHg 64%
    12:00 +26°C° 0 mm 3 mps 617 mmHg 61%
    13:00 +26°C° 0 mm 3 mps 617 mmHg 61%
    14:00 +26°C° 0 mm 3 mps 617 mmHg 61%
    15:00 +27°C° 0 mm 3 mps 617 mmHg 61%
    16:00 +26°C° 0 mm 3 mps 616 mmHg 66%
    17:00 +25°C° 0 mm 3 mps 616 mmHg 71%
    18:00 +24°C° 0 mm 3 mps 616 mmHg 77%
    19:00 +21°C° 0 mm 3 mps 616 mmHg 80%
    20:00 +19°C° 0 mm 3 mps 616 mmHg 83%
    21:00 +18°C° 0 mm 3 mps 616 mmHg 86%
    22:00 +18°C° 0 mm 3 mps 616 mmHg 84%
    23:00 +17°C° 0 mm 2 mps 615 mmHg 83%

    21 July, Sunday

    Time Temperature Precipitation Wind Pressure Humidity
    00:00 +17°C° 0 mm 2 mps 615 mmHg 81%
    01:00 +16°C° 0 mm 2 mps 615 mmHg 81%
    02:00 +16°C° 0 mm 2 mps 615 mmHg 81%
    03:00 +16°C° 0 mm 2 mps 615 mmHg 81%
    04:00 +16°C° 0 mm 2 mps 615 mmHg 80%
    05:00 +17°C° 0 mm 2 mps 616 mmHg 80%
    06:00 +17°C° 0 mm 2 mps 616 mmHg 79%
    07:00 +19°C° 0 mm 2 mps 616 mmHg 73%
    08:00 +21°C° 0 mm 2 mps 617 mmHg 67%
    09:00 +24°C° 0 mm 2 mps 617 mmHg 61%
    10:00 +25°C° 0 mm 2 mps 617 mmHg 59%
    11:00 +26°C° 0 mm 3 mps 618 mmHg 57%
    12:00 +27°C° 0 mm 3 mps 618 mmHg 55%
    13:00 +28°C° 0 mm 3 mps 617 mmHg 55%
    14:00 +28°C° 0 mm 3 mps 617 mmHg 56%
    15:00 +28°C° 0 mm 3 mps 617 mmHg 56%
    16:00 +27°C° 0.1 mm 3 mps 616 mmHg 62%
    17:00 +26°C° 0.1 mm 3 mps 616 mmHg 67%
    18:00 +25°C° 0.1 mm 3 mps 615 mmHg 72%
    19:00 +22°C° 0 mm 3 mps 615 mmHg 75%
    20:00 +20°C° 0 mm 3 mps 615 mmHg 77%
    21:00 +19°C° 0 mm 2 mps 614 mmHg 79%
    22:00 +18°C° 0 mm 2 mps 614 mmHg 78%
    23:00 +18°C° 0 mm 2 mps 614 mmHg 77%
    Show more